Theta_e
334 337 340 339 340 341 341 341 342 344 344 345 345 345 345 346 347 345 346 347 346 345 345 346 344 344 345 345 343 345 345 347 348 348 350 349 352 352 352 352 352 356 360 360 361 367 357 357 358 361 362 363 358 355 354 355 355 359 359 355 356 350 349 352 343 345 336 333 331 331 334 338 348 351 335 336 338 338 337 340 340 339 338 337 339
335 336 339 339 340 340 340 340 343 340 342 344 344 344 346 347 346 346 347 346 346 345 346 346 345 345 344 344 344 344 345 346 344 346 347 350 350 351 353 353 354 357 364 362 363 357 355 358 359 360 361 359 361 363 360 368 363 355 354 349 356 353 348 352 346 338 335 335 332 328 331 333 342 339 337 337 336 334 335 336 338 337 337 337 337
332 336 338 339 340 339 340 341 341 342 342 343 344 345 345 346 346 347 347 347 346 347 346 344 345 347 345 345 344 344 347 349 347 348 349 348 349 352 354 354 355 357 361 364 362 360 357 357 356 360 360 363 362 356 356 355 355 355 351 350 351 350 353 356 351 342 340 339 339 328 325 328 333 333 339 339 339 336 334 335 338 336 336 338 339
331 331 339 338 339 339 339 340 340 341 342 343 344 344 345 347 347 347 348 348 347 349 350 346 346 346 347 347 346 346 344 349 348 348 346 347 348 352 355 354 355 355 360 362 363 360 358 357 357 360 359 361 359 356 356 355 353 352 351 356 352 344 346 350 361 349 346 339 330 333 332 326 324 326 332 335 344 339 333 335 336 336 339 342 342
334 334 335 337 338 338 339 340 340 340 342 343 344 345 346 346 347 347 347 348 348 352 350 347 349 345 346 346 348 346 348 346 344 343 344 348 350 350 352 353 355 355 356 362 363 359 358 357 357 358 360 360 361 357 355 356 355 354 352 356 354 348 345 351 354 360 351 349 338 334 327 325 326 326 333 334 342 340 345 341 350 336 338 343 340
334 336 336 334 337 338 339 340 340 340 342 344 345 346 347 347 348 347 347 348 348 350 351 349 349 343 342 340 340 339 339 340 339 340 342 346 348 350 352 353 354 354 354 357 360 362 357 357 356 357 359 360 361 357 356 356 356 356 354 356 354 355 350 348 349 351 357 356 348 341 334 327 329 333 326 324 335 348 348 344 338 337 343 344 343
335 335 334 338 337 339 339 339 340 341 342 345 345 346 347 348 348 348 347 347 349 350 352 354 347 344 343 341 341 340 338 340 342 343 344 347 347 349 350 351 353 353 354 355 356 361 359 359 356 357 360 360 364 360 355 354 354 352 359 355 353 360 352 344 346 347 347 348 352 350 352 348 340 332 328 334 325 331 336 342 337 338 339 341 343
333 333 334 335 338 338 339 340 341 342 344 345 345 346 346 347 348 347 348 350 350 349 353 354 348 346 343 343 343 340 340 341 342 343 345 348 345 349 349 349 351 353 353 353 355 360 360 359 358 358 360 359 361 361 355 354 354 360 362 359 359 359 350 347 347 348 344 344 354 350 352 352 342 345 340 331 328 325 328 338 343 349 348 345 345
332 331 332 333 335 338 339 340 342 344 344 344 345 346 347 348 348 348 348 349 349 352 353 353 354 350 346 346 344 343 343 344 346 348 345 348 344 347 347 348 349 351 353 353 355 358 364 359 359 360 360 358 366 363 358 356 354 357 358 357 356 355 352 357 350 346 348 346 344 344 348 345 341 343 348 343 335 329 329 335 335 342 343 347 347
336 334 334 334 335 338 343 343 344 343 345 346 346 346 347 348 347 347 348 347 348 353 353 352 354 355 350 346 345 344 348 346 344 344 342 344 343 346 346 346 347 349 353 354 353 358 363 362 360 360 360 360 364 360 356 355 355 358 356 355 357 356 358 356 350 351 353 353 350 348 343 345 341 340 342 341 340 334 330 329 335 337 335 338 344
335 335 336 336 340 339 342 341 341 344 345 345 346 345 346 347 347 346 348 348 348 353 352 352 353 353 351 347 346 345 346 346 342 341 342 342 342 345 346 346 347 349 351 356 355 358 360 361 360 359 358 361 363 359 357 356 357 358 359 359 361 355 353 355 355 354 353 348 348 347 344 344 341 337 338 342 338 337 332 333 338 340 338 337 338
341 337 337 336 338 340 341 341 341 340 343 345 346 345 346 347 346 345 348 348 347 352 352 352 353 352 351 349 346 346 346 346 343 340 343 342 343 344 345 346 346 349 350 353 355 358 357 357 360 360 360 357 356 357 357 358 358 358 356 354 355 355 356 358 353 350 349 348 347 347 345 346 344 340 343 341 341 339 333 331 334 338 337 340 343
341 340 340 334 335 337 337 340 339 339 340 345 346 346 346 347 346 345 348 347 347 352 351 351 351 352 350 350 347 346 346 344 344 343 344 343 343 344 345 346 345 346 348 351 352 356 356 355 355 355 356 358 358 356 355 359 357 357 355 358 355 354 354 353 350 350 351 351 351 351 349 347 344 343 345 345 345 343 337 334 335 341 334 334 338
339 341 341 338 339 337 338 338 340 341 340 345 347 347 347 348 346 345 348 347 347 351 351 351 350 351 350 351 347 348 346 345 345 347 346 346 346 347 347 347 345 346 347 349 351 353 355 356 357 355 355 356 358 358 359 358 358 356 358 358 357 358 357 355 353 355 355 355 353 349 348 346 345 346 343 344 344 341 338 334 333 336 339 335 338
338 337 339 343 343 339 339 339 340 341 342 345 348 347 348 348 347 345 348 347 347 350 350 351 350 351 350 350 349 347 347 345 345 349 348 348 349 350 349 349 347 348 348 349 352 352 353 354 355 354 354 356 357 359 362 360 362 361 361 357 360 360 360 358 357 356 354 353 351 348 349 350 348 348 342 342 342 340 339 338 335 332 333 337 341
342 343 340 343 344 343 339 341 340 341 342 344 348 348 348 349 349 346 348 348 347 351 349 351 351 351 350 349 350 349 353 347 348 352 349 349 350 349 349 349 349 349 349 350 350 351 351 352 354 354 353 355 356 358 358 358 357 357 355 356 354 360 356 357 356 356 355 353 351 349 348 348 348 347 348 344 342 342 341 341 338 335 332 329 334
337 344 341 341 340 341 343 344 340 341 342 344 348 349 349 350 350 349 349 351 347 352 350 351 350 350 350 350 350 351 350 347 346 348 348 349 349 349 349 348 349 349 349 350 348 349 349 350 351 353 352 353 355 357 358 357 356 356 357 354 355 355 355 353 354 353 353 353 353 352 349 349 349 352 353 354 346 345 342 342 341 339 337 333 331
340 345 343 342 341 343 345 348 347 341 342 344 347 350 350 351 351 348 349 352 348 351 351 351 350 350 350 350 350 351 351 350 348 348 349 348 348 349 348 348 347 349 350 349 348 347 347 355 350 351 351 352 354 356 357 357 357 356 355 354 356 356 354 355 356 357 356 355 356 355 353 350 352 351 348 350 351 352 349 344 344 344 343 338 335
339 337 339 340 340 342 344 347 349 345 344 346 348 350 351 351 352 350 350 353 353 353 353 352 351 352 352 351 351 351 352 351 350 351 350 348 348 348 348 348 347 348 350 348 347 347 345 349 350 350 350 351 352 353 356 355 355 355 356 355 356 356 355 353 354 357 358 357 355 354 352 350 350 350 352 352 352 352 350 348 346 346 348 344 341
337 338 339 340 340 340 341 342 345 344 345 346 348 349 349 350 351 350 351 350 353 352 351 349 350 351 352 352 352 352 352 351 350 349 349 347 347 348 348 347 346 347 347 348 347 346 346 344 350 350 349 350 351 352 353 354 354 353 354 356 356 356 356 355 355 356 358 357 354 352 352 352 352 352 352 353 354 353 353 349 348 349 349 347 345
334 337 339 338 340 342 344 344 345 347 349 347 347 347 347 348 348 350 348 346 348 349 348 348 348 349 351 351 352 352 352 352 351 350 349 348 347 348 347 348 347 345 345 345 347 346 345 344 345 349 349 349 349 350 352 353 352 352 352 353 354 353 353 354 356 355 356 356 354 353 354 355 354 353 352 352 352 351 350 350 348 346 349 350 348
333 335 338 338 339 341 345 346 344 345 347 348 346 344 343 342 343 345 345 347 347 347 346 347 347 348 350 351 352 353 353 352 351 350 349 348 348 347 345 346 345 345 345 343 343 346 346 345 343 343 346 348 349 349 350 352 352 352 352 354 354 352 352 352 353 354 355 356 356 354 354 354 354 354 353 352 351 350 350 347 347 350 349 352 353
334 335 337 337 338 339 343 345 344 343 344 345 345 345 343 342 343 345 345 344 347 346 347 347 347 348 349 351 352 352 352 352 352 349 347 347 347 346 347 344 344 345 348 347 344 343 345 345 344 344 344 345 346 348 349 349 351 352 352 353 354 353 352 352 353 354 355 355 355 355 356 356 357 354 352 351 351 351 350 348 348 350 348 349 353
333 335 337 337 338 338 340 343 343 342 342 343 343 344 346 345 344 345 345 346 348 347 348 349 348 348 350 350 349 352 353 352 350 348 348 348 348 349 350 345 345 346 347 348 347 347 343 344 345 345 345 346 346 346 348 349 349 350 352 352 352 353 353 352 352 354 356 356 356 356 356 356 355 352 351 351 352 351 350 351 351 351 350 349 351
332 333 336 337 337 336 338 339 339 341 341 341 342 342 342 344 346 346 346 347 348 349 347 347 349 348 349 348 348 350 351 351 350 349 348 350 349 350 351 350 348 346 346 345 348 349 348 346 344 345 346 347 347 347 347 348 349 349 350 351 352 352 352 352 352 353 361 357 354 350 350 350 351 350 352 352 351 349 350 350 348 349 351 352 354
332 332 335 336 336 335 336 337 338 339 340 341 342 343 343 345 346 349 346 348 351 349 347 348 346 347 347 347 349 349 349 349 349 348 348 348 348 348 347 349 352 350 350 347 346 346 348 346 347 348 348 347 348 350 350 349 349 349 349 351 352 352 352 352 353 353 353 349 349 349 347 347 348 349 351 352 352 349 350 349 349 349 350 353 351
330 332 333 335 335 335 335 336 337 338 340 340 342 343 344 344 345 347 349 349 347 348 347 348 350 348 348 350 350 349 349 349 350 349 349 349 348 347 347 345 351 351 349 347 348 347 351 348 347 349 348 347 347 348 347 348 349 350 347 349 352 352 352 352 352 352 349 349 349 349 347 347 347 349 351 351 352 351 351 351 351 348 350 352 349
329 331 332 332 333 334 335 336 338 338 338 340 342 342 344 344 343 346 348 351 351 350 348 350 349 348 346 349 350 350 351 349 349 348 349 349 351 351 351 349 349 348 348 349 349 350 350 349 348 348 350 350 350 348 347 347 347 348 347 348 348 351 351 351 352 350 351 350 349 348 348 348 348 349 351 350 349 349 351 351 352 350 352 351 348
325 328 330 329 330 332 333 335 336 339 339 340 340 342 342 342 343 345 347 348 350 349 348 348 347 347 346 348 350 351 350 350 352 348 348 349 351 351 352 351 352 351 352 351 353 352 349 347 349 351 352 351 349 349 349 348 347 347 350 348 344 348 349 350 350 351 350 350 350 349 349 350 353 360 360 357 356 356 351 349 352 353 352 351 350
323 324 326 329 331 332 333 334 335 336 338 340 342 342 340 340 342 344 348 349 346 345 344 342 342 343 345 347 350 352 350 350 350 349 348 349 350 350 352 351 352 351 351 352 351 353 352 349 348 348 350 350 348 349 354 353 352 350 350 350 348 350 351 350 349 349 350 349 350 350 353 359 362 363 362 362 362 365 366 357 355 355 352 350 349
324 324 324 326 330 331 332 333 334 336 337 338 340 340 340 340 341 344 347 349 349 344 344 343 342 342 344 346 348 351 350 349 348 349 349 350 351 352 351 350 349 349 351 352 356 353 352 350 349 347 348 349 349 349 353 342 343 352 354 350 351 350 351 351 350 349 348 349 350 351 350 360 364 363 359 360 359 363 368 367 366 366 362 352 348
323 324 325 326 328 330 331 332 334 337 338 338 339 341 341 342 343 344 344 344 344 344 341 341 343 343 344 345 348 349 349 348 347 348 350 349 347 345 346 349 350 350 350 352 351 351 351 353 350 347 347 347 348 350 339 340 344 344 355 354 350 350 351 350 351 350 349 350 349 351 352 354 352 351 350 351 355 360 366 366 365 365 366 365 361
321 325 327 327 329 331 333 334 336 337 339 340 341 340 340 340 340 341 341 340 339 340 340 340 341 342 342 343 345 346 347 346 347 349 350 348 345 344 343 344 345 348 347 346 347 350 348 349 352 352 353 349 340 333 329 333 334 337 341 357 352 352 352 351 351 351 350 350 350 350 353 351 352 360 360 352 349 353 362 366 366 365 365 363 350
320 324 328 329 331 332 334 336 336 338 338 339 340 339 338 339 339 338 337 337 337 337 337 338 339 341 340 341 342 344 344 344 345 346 346 346 346 344 345 346 346 346 346 347 348 345 347 347 348 347 346 336 330 330 327 329 329 330 333 341 351 352 351 351 351 351 350 349 350 349 350 352 350 354 352 351 352 351 352 352 354 354 355 360 361
319 322 325 329 332 333 334 334 335 336 336 336 336 335 334 333 334 334 335 335 336 336 336 336 337 338 340 340 340 340 339 340 341 342 343 343 344 345 345 345 345 344 345 344 344 344 347 350 351 348 342 331 323 323 323 323 324 325 331 340 344 351 351 349 351 351 350 349 350 352 350 350 348 349 354 355 349 349 350 353 352 351 350 351 353
321 322 324 326 330 332 331 332 336 334 333 333 333 333 331 330 331 331 332 333 334 334 334 336 336 336 337 338 338 338 338 339 339 341 341 342 343 343 342 341 339 337 337 339 339 341 342 345 348 345 339 327 322 319 319 319 320 321 330 339 343 346 349 350 350 350 349 350 351 349 346 345 345 343 344 342 349 349 347 349 350 350 351 353 353
322 327 327 328 331 331 332 332 333 332 330 330 331 330 329 329 329 330 330 331 332 332 332 333 334 336 337 338 338 338 338 337 339 339 340 341 340 339 338 337 332 332 331 331 331 332 336 339 339 334 327 323 320 319 316 316 318 321 331 337 343 347 349 350 347 347 346 348 349 348 347 346 342 339 334 324 333 352 346 347 346 347 348 349 350
323 324 325 327 329 331 332 331 331 331 332 332 331 331 329 328 328 329 329 330 330 330 332 332 333 334 336 337 338 338 338 338 339 339 340 339 337 335 333 333 330 329 328 328 328 328 330 333 333 330 328 323 321 319 314 312 314 318 332 334 337 346 348 343 343 345 346 345 348 354 343 332 330 330 323 322 327 344 344 343 343 342 341 342 344
323 323 323 326 328 330 333 331 328 327 328 329 328 327 327 326 327 327 328 329 329 330 331 332 333 334 334 336 336 336 336 336 337 337 339 337 335 333 333 331 329 327 327 327 327 324 324 325 327 328 331 322 321 319 313 311 312 314 325 327 327 330 335 338 343 343 344 335 334 339 340 335 330 325 318 320 325 336 333 333 335 335 335 335 337
323 322 327 328 329 330 329 329 328 329 333 329 329 327 325 323 323 324 325 327 329 331 331 332 333 333 333 334 335 335 335 335 335 336 337 337 337 334 332 330 328 326 324 323 323 321 320 321 322 323 324 323 320 319 317 310 310 312 317 327 327 327 327 328 334 341 331 331 331 329 330 323 318 317 314 314 316 323 331 332 333 332 331 331 333
324 325 332 326 328 328 328 329 329 331 332 332 331 327 326 326 323 322 323 325 327 329 330 331 332 333 333 333 334 333 333 333 334 334 336 336 336 334 332 329 327 325 324 322 321 321 320 320 320 321 322 324 324 322 319 311 310 311 313 320 323 324 325 327 327 331 330 327 327 328 328 327 317 315 313 311 311 318 327 334 332 332 333 331 329
326 328 326 323 326 326 328 329 330 331 331 330 329 327 327 324 322 322 324 326 326 327 328 329 329 328 328 328 330 331 331 331 331 331 331 331 333 333 331 329 327 325 323 321 321 322 319 320 320 322 322 321 325 327 325 317 312 310 310 314 322 324 325 326 325 323 323 324 326 328 331 325 314 313 310 309 311 315 322 334 329 317 316 319 328
320 320 325 324 323 325 327 328 329 330 328 330 331 326 325 324 322 322 323 324 327 327 327 327 327 327 327 325 324 324 325 326 325 326 325 325 327 329 329 328 326 324 323 322 322 321 319 319 319 319 320 320 321 324 323 324 317 311 310 312 315 321 320 329 324 324 324 324 326 327 329 324 311 307 307 312 315 321 330 323 314 318 321 325 335
317 319 321 325 323 324 325 327 328 329 329 327 328 326 326 323 322 324 325 323 319 319 321 322 321 319 319 322 323 323 322 321 322 322 323 322 322 324 326 327 326 325 323 322 322 322 321 320 319 319 319 319 319 318 322 323 322 316 312 310 312 314 317 326 330 327 328 327 324 324 325 312 309 306 311 316 317 323 324 313 316 321 326 331 332
314 316 321 320 320 321 323 326 327 328 328 328 329 327 327 324 325 327 326 324 321 319 317 317 316 316 317 317 318 318 319 319 318 318 319 320 321 321 321 322 324 322 322 321 320 323 321 320 320 319 318 318 318 317 316 320 321 321 316 313 314 316 317 318 327 325 327 324 318 312 312 313 315 316 319 322 324 326 320 319 319 324 334 330 329
317 317 318 317 317 319 320 322 323 326 327 329 328 328 326 325 327 329 328 327 325 321 319 316 315 314 314 316 316 317 317 318 318 317 317 316 317 320 319 318 320 321 321 320 320 319 319 320 316 317 318 318 317 315 314 314 319 320 319 317 316 319 324 325 326 323 323 319 318 318 319 322 324 327 332 331 330 330 326 327 328 331 329 330 329
314 318 320 315 316 316 316 317 317 320 323 326 326 327 327 327 327 327 327 326 326 325 322 316 313 313 313 314 314 315 316 317 316 316 316 316 314 313 316 317 316 316 318 319 320 319 317 315 315 314 315 316 314 313 312 312 312 312 313 316 317 319 321 323 321 321 324 326 332 332 328 323 323 325 328 328 329 330 329 326 326 326 327 328 329
317 318 318 316 316 315 316 317 317 317 319 322 323 323 325 325 326 327 326 325 324 323 320 319 317 317 318 318 320 324 318 315 315 314 312 313 314 314 312 312 312 311 314 314 317 316 315 314 312 313 313 314 313 312 311 309 311 310 310 311 315 316 314 316 317 317 321 330 332 331 329 335 334 331 329 328 327 326 327 326 324 324 324 327 328
319 319 319 315 317 318 318 319 318 319 319 319 321 322 324 324 325 325 325 324 324 326 322 319 319 320 320 322 319 317 316 315 313 312 311 309 310 312 313 312 311 310 310 313 315 316 317 313 312 311 311 314 314 313 314 308 307 303 304 305 311 310 310 315 318 312 324 327 326 326 326 325 325 325 325 324 324 323 323 322 323 322 322 322 323
321 321 320 321 321 319 319 319 318 320 322 322 322 323 324 325 324 322 322 323 323 321 320 321 321 322 323 322 319 316 317 317 314 313 313 313 310 304 305 313 313 311 304 299 302 309 306 309 312 312 312 311 312 314 306 296 295 296 298 299 300 299 300 309 312 318 324 321 321 321 321 321 321 321 321 321 322 322 321 319 319 320 320 319 319
322 321 321 321 320 322 321 320 319 321 322 323 323 323 324 324 324 322 320 319 319 320 319 320 324 324 324 324 322 318 316 314 314 315 315 316 313 310 297 300 307 308 302 295 293 294 296 302 310 314 313 305 306 300 295 295 296 297 297 297 298 299 301 304 309 320 320 319 318 318 318 319 319 319 319 319 319 319 319 318 317 316 316 317 317
Wind_Speed
8 11 12 15 12 8 10 9 9 11 9 11 11 9 9 8 9 8 7 7 7 7 6 6 5 4 2 4 4 4 4 3 4 3 4 3 3 3 3 4 3 3 3 3 5 3 1 1 2 1 1 1 1 3 3 3 3 2 2 1 3 3 3 3 5 3 5 5 4 3 4 2 3 2 0 1 1 3 3 4 5 5 6 5 6
7 9 11 15 12 13 11 8 10 11 9 11 11 10 9 10 9 9 7 7 7 7 6 5 4 4 4 5 3 4 4 5 4 4 4 4 3 4 4 4 4 3 3 4 3 2 1 0 0 1 1 0 1 2 1 3 3 4 2 4 1 2 2 2 5 4 4 1 2 4 3 5 3 2 1 1 3 5 6 6 7 7 6 7 5
14 2 14 12 14 14 11 9 11 13 13 12 10 10 10 9 8 8 8 7 7 7 6 6 4 3 3 3 4 3 2 3 3 3 3 4 4 5 5 4 4 4 4 3 3 2 1 1 0 0 1 1 1 3 2 3 3 4 3 2 4 2 1 2 2 3 1 1 1 1 2 1 4 4 2 1 3 1 0 3 3 3 4 4 4
4 10 12 8 12 12 10 10 11 11 11 9 10 11 9 8 8 8 8 7 7 8 7 6 7 5 3 4 4 4 3 3 3 3 3 4 5 5 5 5 5 4 4 3 2 1 1 1 1 1 2 2 2 2 3 4 3 4 4 2 0 2 3 2 1 2 0 1 1 0 0 1 1 1 1 4 3 1 2 1 2 2 1 0 2
5 3 6 16 7 11 12 11 12 11 11 11 10 10 8 10 10 9 8 7 7 8 8 6 5 4 3 2 1 2 2 3 3 4 5 5 4 5 6 5 5 4 3 3 2 2 2 2 2 2 2 2 1 2 3 3 3 4 3 2 1 0 3 1 2 2 3 0 2 1 2 2 1 2 2 3 3 2 4 1 2 3 1 0 1
5 6 7 6 15 4 11 13 12 11 11 11 11 10 10 8 9 8 7 7 7 7 7 6 6 7 6 6 6 5 4 5 6 7 5 5 7 5 4 5 5 4 4 3 3 2 3 3 2 2 3 3 2 3 3 3 4 4 4 3 1 1 1 2 3 3 1 2 1 0 3 1 2 0 1 1 4 1 3 3 2 3 2 1 2
5 5 8 5 6 13 9 13 14 13 11 11 10 10 11 10 9 8 8 7 6 6 6 7 6 6 7 7 6 6 6 5 4 4 5 5 5 5 5 4 5 5 4 4 3 3 3 3 3 3 3 3 2 3 3 4 3 4 1 3 2 2 2 1 2 3 5 1 2 3 1 1 3 1 1 0 1 3 2 3 3 3 2 2 2
7 8 5 5 7 6 9 14 13 14 13 12 11 10 11 10 10 8 7 7 5 5 6 7 9 7 6 6 6 6 6 6 6 5 5 5 5 5 4 5 5 4 5 4 4 4 4 4 3 3 3 3 3 4 4 3 3 3 2 2 2 1 1 0 2 1 1 3 3 1 2 3 2 2 2 2 1 0 4 4 1 1 1 3 3
9 7 8 6 8 9 8 8 13 14 14 13 12 12 11 11 11 8 8 7 6 5 6 6 7 8 8 7 6 6 7 6 5 5 6 5 5 4 5 5 5 4 4 5 4 4 4 4 3 3 3 4 3 4 3 3 3 3 1 0 1 0 0 1 1 2 0 2 3 2 2 3 2 2 1 2 1 0 2 1 3 4 3 3 4
4 7 8 7 9 10 7 10 8 14 13 13 13 12 12 10 11 10 9 7 5 5 5 5 5 6 6 6 7 6 6 5 5 6 6 5 6 5 6 6 5 5 4 4 4 4 4 4 4 4 4 4 3 3 2 3 3 3 3 2 1 1 1 1 1 2 1 2 1 1 2 2 2 1 1 1 1 0 1 2 2 1 3 4 4
4 3 4 4 8 12 9 8 11 11 11 13 13 13 12 12 12 11 9 7 6 6 6 5 4 5 4 4 6 6 5 6 6 4 5 4 6 5 5 6 5 6 5 4 5 4 4 4 5 4 3 3 4 3 3 3 5 4 3 2 2 3 3 2 1 1 1 3 3 1 2 2 1 2 3 2 1 1 1 2 3 2 2 4 4
1 2 2 3 4 10 11 9 9 10 8 12 13 12 12 12 12 12 9 9 7 6 7 5 5 5 4 4 4 5 6 6 7 6 6 7 7 6 5 5 5 5 4 4 4 4 4 4 4 4 4 4 5 4 3 3 3 3 2 2 3 3 2 2 1 3 3 4 3 3 3 2 2 4 4 4 4 3 3 3 3 2 2 3 5
2 2 2 3 6 7 10 11 8 8 13 11 14 13 12 12 13 13 10 9 9 8 8 7 5 5 5 4 4 4 5 5 6 7 6 7 7 6 5 6 6 5 5 5 5 5 4 4 4 5 4 4 4 4 4 3 3 3 3 3 4 4 4 4 3 3 3 3 5 4 3 3 4 4 3 4 2 2 3 2 2 1 3 3 3
2 1 0 3 3 2 9 10 9 9 8 9 14 13 12 11 13 13 12 10 9 9 8 8 7 6 5 5 5 4 5 5 5 6 6 6 7 7 7 7 7 6 5 6 6 5 4 5 5 5 5 4 4 4 3 3 2 3 3 2 3 4 3 3 4 4 3 4 3 5 5 5 5 3 3 4 4 3 1 3 2 1 1 4 3
2 1 2 3 0 5 1 11 11 10 11 11 12 13 12 12 12 13 11 10 10 10 8 9 8 7 5 5 5 4 5 5 5 5 6 5 5 6 6 6 6 6 6 6 5 5 5 5 5 6 5 5 4 4 3 3 2 1 1 2 2 2 3 3 3 4 5 4 4 3 5 5 5 3 4 5 5 5 5 4 3 2 2 2 2
6 1 4 1 0 1 3 2 12 12 14 14 12 12 13 13 13 13 13 11 11 10 9 9 8 7 5 5 5 5 4 4 4 4 5 5 6 5 6 5 6 6 5 4 6 5 5 6 5 6 5 5 4 4 4 3 3 2 3 3 4 2 2 2 4 3 4 4 5 4 3 5 5 5 2 4 5 5 5 3 3 4 4 4 2
2 3 3 2 1 1 0 1 9 14 15 13 13 14 14 13 12 11 9 8 10 10 10 9 8 7 7 6 5 5 6 6 6 5 5 5 5 5 5 5 5 5 6 5 5 6 6 6 6 7 6 5 5 4 4 4 3 3 3 3 5 4 3 3 3 3 4 5 4 4 4 4 5 4 3 1 3 3 3 4 4 6 5 2 2
3 1 4 2 2 1 3 3 1 9 12 11 11 10 10 12 13 14 11 11 10 9 9 9 9 8 7 7 7 6 6 6 7 6 6 5 4 4 4 4 5 6 6 6 5 6 6 8 7 7 7 6 6 5 5 5 4 4 4 4 5 4 4 3 3 3 4 4 4 3 3 5 4 4 5 4 1 3 3 3 5 4 5 6 5
4 4 4 4 7 9 10 9 6 2 8 10 10 9 10 10 12 14 14 12 14 11 9 7 8 8 8 9 9 7 6 6 6 6 5 6 7 6 6 6 5 5 6 5 5 5 5 6 7 8 7 6 6 6 5 5 5 5 4 5 5 4 4 5 5 4 5 4 4 4 4 5 4 4 4 3 3 1 1 3 4 4 5 6 6
4 6 6 5 7 6 9 13 13 8 2 8 10 9 12 11 13 12 9 5 7 10 11 12 10 8 8 8 8 8 7 7 7 7 7 7 7 8 8 7 8 7 7 8 7 7 6 6 6 8 8 7 6 6 6 5 5 5 5 5 5 4 5 5 6 5 4 4 4 4 4 4 4 4 4 4 3 3 3 4 1 3 5 5 3
4 5 5 5 5 5 5 6 9 11 8 3 3 8 9 9 11 10 11 9 9 9 8 9 9 9 8 9 9 8 9 8 8 8 8 8 7 7 8 9 7 8 8 8 8 8 7 6 6 6 7 7 7 7 6 5 5 5 6 6 5 5 5 5 5 6 5 5 5 4 4 4 3 4 5 5 5 4 5 3 2 2 3 3 5
3 4 5 4 4 2 4 7 7 5 8 8 4 6 7 9 10 11 7 0 7 7 8 7 7 8 9 8 10 9 8 7 8 9 9 8 8 6 4 4 7 9 9 9 9 8 7 8 8 7 6 7 7 7 7 6 6 6 7 6 6 6 6 6 5 6 6 6 5 5 6 5 4 4 5 5 5 5 4 3 2 2 2 3 3
6 5 3 2 3 2 1 6 7 6 3 4 4 3 6 10 11 9 8 3 8 4 3 5 7 7 8 7 7 9 10 9 8 6 6 6 5 5 4 4 3 2 1 1 2 3 6 9 9 8 8 7 6 7 7 7 7 8 8 8 8 7 7 7 7 7 7 6 6 6 6 5 5 4 5 5 4 4 3 3 3 2 2 2 3
6 4 4 2 1 2 2 4 6 5 5 7 6 7 6 2 6 6 7 8 7 1 7 4 6 7 7 6 7 7 9 10 9 8 8 6 5 5 4 4 3 2 2 2 1 1 2 4 6 9 10 9 7 7 7 7 8 9 9 9 8 8 8 8 8 8 7 6 7 6 5 4 4 5 6 5 3 2 2 2 3 2 1 3 3
7 6 4 3 2 4 3 4 4 6 7 6 6 5 4 4 3 2 5 7 7 8 2 8 6 8 6 6 7 8 9 10 10 8 7 6 5 5 4 5 4 4 3 3 3 2 0 3 3 2 3 5 7 8 8 8 7 7 9 9 9 8 9 8 8 7 8 4 1 2 4 5 4 6 7 5 4 4 4 3 4 3 3 4 3
6 7 6 6 4 2 2 3 4 5 5 4 4 3 2 2 3 2 1 2 3 6 7 3 9 8 6 6 6 7 9 10 9 8 8 7 6 5 4 3 5 5 4 5 5 4 4 3 3 3 2 2 1 1 2 3 4 6 7 9 9 9 9 9 8 8 3 5 7 7 3 2 3 4 7 7 4 4 3 4 4 4 4 3 3
6 6 6 5 5 4 2 2 4 4 3 4 5 4 3 1 3 3 2 1 2 5 7 7 3 8 4 4 5 5 4 4 6 7 6 5 5 5 5 5 4 5 6 5 5 6 6 5 4 4 5 5 3 2 2 1 0 2 7 8 9 9 9 9 9 5 7 6 6 5 5 5 6 6 6 6 5 3 3 4 5 5 4 3 4
5 6 6 6 5 5 5 3 3 5 5 5 2 3 3 4 2 1 0 1 2 3 5 5 5 3 4 3 3 2 3 2 3 3 3 4 3 3 3 3 3 3 3 4 5 6 5 6 7 6 5 3 4 4 4 4 6 5 4 7 10 9 9 7 4 6 6 6 7 7 7 7 7 5 2 6 5 6 6 4 5 3 4 4 5
3 4 4 3 4 4 4 4 3 0 1 3 1 1 2 3 3 1 2 0 1 3 2 4 3 1 3 2 4 3 2 1 1 2 2 2 2 2 2 2 2 2 2 2 2 1 2 4 5 6 5 5 6 7 7 8 8 5 4 2 5 12 6 6 6 6 6 7 7 7 7 7 6 5 9 12 11 11 7 6 5 4 4 5 4
3 4 3 3 3 3 3 3 4 4 4 3 2 1 2 1 1 2 2 2 2 2 4 5 7 5 1 3 3 1 2 2 2 1 1 0 0 0 1 1 1 3 3 2 1 1 1 3 3 3 3 5 6 6 7 7 7 5 6 6 9 12 7 6 6 6 6 6 6 6 6 10 8 9 10 10 12 14 10 7 6 6 6 5 5
3 3 4 3 2 3 3 4 3 3 3 3 3 1 1 1 0 1 1 2 4 5 3 2 3 5 4 2 3 1 3 3 3 3 2 3 2 1 0 1 1 1 1 1 1 2 2 1 2 3 4 4 4 4 7 8 11 13 8 8 9 8 7 7 7 7 7 7 6 7 5 7 8 9 8 11 12 12 11 9 9 9 8 7 5
2 3 3 3 3 4 4 3 3 3 3 4 4 4 3 3 3 5 4 4 4 5 5 5 5 6 2 2 1 3 4 4 4 4 3 3 2 2 2 1 0 0 0 0 1 2 2 1 3 4 4 5 2 7 7 7 10 12 12 9 10 11 10 9 7 7 7 7 7 5 5 5 5 6 6 5 6 9 9 9 9 9 10 12 9
3 3 3 3 3 3 4 4 3 4 5 6 6 6 6 6 7 5 5 6 6 5 5 5 3 5 0 3 3 2 3 2 2 3 3 1 1 2 2 2 1 0 0 0 1 2 2 1 1 0 1 4 6 11 11 11 9 10 13 11 8 9 8 7 7 7 7 6 6 5 1 1 4 10 7 3 2 3 7 8 8 9 9 10 9
3 3 3 3 3 5 5 5 6 5 6 7 8 8 7 7 7 7 7 6 6 5 5 4 4 3 5 2 1 3 4 4 4 5 5 4 2 1 1 1 1 1 1 1 1 2 2 3 2 0 5 5 5 10 10 10 10 11 12 9 7 6 6 7 7 7 6 6 6 7 7 5 4 3 1 0 1 2 3 4 4 3 4 6 9
3 4 5 4 3 5 6 7 7 6 7 8 8 7 7 8 7 7 6 6 5 5 4 3 4 4 4 5 4 4 5 4 4 6 6 6 5 4 3 3 3 2 2 1 1 1 0 1 1 3 4 5 5 12 10 9 7 8 10 9 6 6 5 5 6 6 5 5 5 5 5 4 2 2 2 2 3 3 2 3 3 4 4 5 4
1 2 4 4 4 5 6 6 5 6 7 8 7 6 7 7 7 7 6 6 6 6 5 5 6 5 5 5 5 6 6 5 3 6 7 6 5 4 4 4 5 5 5 5 5 5 5 4 2 2 6 6 7 13 10 9 10 9 12 4 4 5 6 4 5 3 0 3 3 4 7 5 1 3 6 6 4 1 2 2 2 3 3 3 3
2 2 3 3 2 4 6 5 4 6 7 7 6 7 7 7 8 6 6 6 6 7 6 6 7 6 5 5 6 6 7 4 4 6 7 6 6 6 5 4 6 7 7 8 7 6 5 7 9 7 7 6 6 11 11 11 10 12 8 5 5 4 5 3 4 6 7 3 2 4 4 4 5 4 7 7 8 5 3 2 2 3 3 3 4
3 3 4 5 4 4 4 5 5 5 4 3 5 6 6 6 6 5 6 7 7 7 6 6 6 6 6 6 7 8 8 6 6 6 6 7 7 6 6 5 6 7 8 7 6 8 8 7 8 8 7 6 6 10 12 12 11 10 8 5 6 6 3 2 2 4 2 2 4 12 8 5 5 5 6 7 8 4 3 3 3 3 4 4 4
2 3 4 4 4 3 3 4 6 6 3 3 5 6 6 5 3 3 4 6 6 5 5 5 5 5 5 5 6 7 8 8 7 7 7 7 6 6 5 5 6 6 7 6 6 7 7 8 7 7 12 9 6 8 12 13 14 14 8 6 5 6 7 5 1 5 4 5 6 10 13 9 6 4 6 6 7 5 4 3 3 3 3 4 3
1 2 2 3 4 4 4 6 8 7 7 4 4 3 4 4 3 2 4 5 4 4 3 2 3 4 4 4 5 6 6 7 8 8 7 6 5 6 6 6 6 5 6 6 6 7 8 7 6 6 6 6 6 6 9 12 13 14 14 6 4 6 6 7 7 6 7 6 6 6 8 9 9 8 8 7 7 6 4 3 2 2 3 4 4
1 2 5 4 3 3 4 5 6 6 5 5 4 3 3 3 3 4 5 4 4 5 5 3 3 4 4 4 5 6 8 8 7 7 7 7 6 6 6 6 6 5 6 7 7 7 7 6 6 5 5 5 5 5 7 11 12 13 14 11 6 7 6 6 8 7 7 7 7 6 5 9 8 9 7 6 5 5 3 2 2 2 3 6 7
4 6 5 5 5 5 4 5 5 7 5 4 2 2 2 4 4 4 4 4 6 6 6 6 6 6 5 6 6 6 7 7 7 7 7 7 5 5 5 5 5 5 7 7 6 6 6 6 6 6 6 5 7 12 6 7 9 11 11 11 7 6 7 6 7 3 5 8 6 4 4 6 8 7 5 4 5 4 2 4 4 4 7 6 4
7 5 6 7 4 4 5 5 5 7 5 3 4 2 3 4 6 4 3 3 5 5 5 5 4 5 5 6 7 8 7 6 6 6 7 7 5 5 4 5 5 6 6 6 6 5 6 6 5 5 4 5 5 5 9 7 10 12 13 12 12 8 9 3 2 3 5 5 4 3 3 5 5 6 7 6 8 7 6 5 6 8 8 8 6
5 6 6 7 6 4 4 4 5 4 5 3 2 1 2 4 4 3 4 5 7 8 8 6 5 5 6 7 7 7 7 6 5 6 6 6 5 4 4 4 4 5 5 6 5 5 5 5 5 4 5 5 5 5 8 11 9 10 12 13 11 10 8 3 2 1 2 3 3 4 4 4 7 8 8 8 9 8 7 10 11 10 9 7 5
7 6 5 5 7 7 5 3 2 3 4 3 2 1 1 4 2 3 4 5 6 6 6 6 6 5 7 6 7 7 7 7 6 6 6 6 5 5 6 5 5 5 5 5 5 5 5 5 5 6 6 6 6 6 6 8 12 11 10 11 10 10 9 7 3 2 2 3 3 3 5 8 9 10 11 9 9 11 13 12 12 11 10 6 7
6 5 5 5 4 5 5 4 3 3 4 4 3 3 3 2 3 4 4 4 5 6 6 6 6 6 7 7 7 7 7 7 7 6 6 5 4 5 6 5 6 6 5 5 5 5 4 4 4 5 5 5 6 6 6 6 7 9 8 10 11 11 11 10 7 5 6 5 6 9 12 12 12 8 8 7 7 8 12 12 12 11 7 7 6
7 6 6 5 5 5 4 4 4 2 3 3 4 3 3 3 5 5 6 7 7 7 6 6 6 7 6 7 7 6 6 6 6 6 6 6 5 5 5 5 5 5 4 4 4 3 3 3 4 4 4 4 5 5 6 6 6 6 6 7 7 8 10 9 7 6 7 6 9 10 9 10 9 11 11 10 8 8 7 7 7 7 7 7 7
6 6 7 6 6 6 5 6 5 3 3 2 3 3 4 5 5 5 6 7 8 7 6 4 5 4 5 6 6 8 7 5 5 5 6 6 6 5 5 5 4 4 4 4 3 3 3 3 3 3 3 5 5 5 5 6 6 6 7 6 5 6 7 6 6 6 6 7 7 7 8 7 6 7 6 5 6 6 7 6 7 6 7 8 9
7 6 7 7 6 6 5 5 4 3 3 3 3 3 4 6 6 5 7 8 7 7 7 6 4 4 4 4 5 5 5 5 5 5 4 3 4 4 3 3 3 2 1 1 2 2 3 3 2 3 4 5 4 4 4 3 4 5 5 6 7 6 5 6 5 5 5 7 7 8 7 8 7 6 6 6 6 6 7 7 7 7 7 7 7
6 6 6 5 5 6 6 5 4 4 3 3 3 4 4 5 5 5 6 7 6 7 7 6 6 5 4 4 3 4 3 4 4 4 3 3 5 2 2 1 2 4 5 4 2 2 2 2 2 1 1 3 2 1 3 4 4 5 5 4 3 3 3 4 7 11 8 7 7 7 7 7 7 6 6 7 6 6 6 6 7 7 7 7 7
6 7 6 6 5 4 5 4 4 3 3 3 4 4 4 4 4 4 6 6 5 6 5 6 6 6 6 5 4 3 2 2 2 3 3 3 2 0 2 3 2 1 1 2 1 1 3 5 2 1 1 1 2 3 5 5 4 3 4 7 9 9 10 12 10 8 9 8 7 7 6 6 6 6 6 6 6 6 6 6 6 6 7 7 7
Wind_Direction
170 149 147 145 155 156 155 157 158 155 155 151 153 154 153 144 140 145 149 144 142 145 153 152 147 146 135 171 175 168 174 177 187 201 196 216 203 201 193 202 222 224 221 217 224 231 180 71 18 37 5 68 215 255 265 292 285 272 292 329 337 339 329 344 334 355 30 351 346 350 324 325 344 31 30 296 221 205 199 211 212 209 214 218 220
156 142 148 148 162 156 161 158 149 149 156 154 154 155 152 147 148 148 148 150 154 158 158 163 173 180 162 172 160 160 171 177 191 207 208 207 217 201 201 203 215 218 210 207 205 179 160 129 59 357 29 162 224 266 284 298 317 333 349 349 351 20 319 342 323 24 19 6 333 322 337 331 331 4 9 10 206 190 208 223 209 212 209 227 225
340 188 154 157 155 152 153 147 148 151 156 157 153 148 151 146 148 151 154 158 159 161 160 171 183 188 170 161 165 152 181 181 186 191 207 215 215 202 197 199 203 210 206 203 186 193 155 166 226 359 291 274 269 303 314 312 312 314 340 20 315 355 312 294 353 61 346 331 51 83 320 349 327 357 339 347 9 290 92 252 249 213 238 265 231
34 356 328 171 153 145 141 142 145 147 150 151 152 151 151 147 151 154 160 159 161 167 175 181 179 174 166 168 162 168 172 174 177 175 209 222 219 197 192 190 196 199 208 209 207 177 170 190 257 310 267 249 214 258 308 294 312 315 333 335 181 4 340 314 332 66 162 116 7 21 287 97 356 322 313 297 341 318 194 160 180 196 174 302 139
147 98 44 317 180 151 147 148 146 148 152 155 155 155 157 157 157 158 160 164 169 173 178 178 164 145 145 124 152 109 100 151 167 210 204 211 200 187 192 186 190 195 202 204 210 206 201 197 204 263 245 253 227 240 272 264 279 277 273 274 235 129 336 318 307 343 342 292 149 57 2 19 256 246 360 300 350 334 352 58 189 169 180 197 193
150 135 155 190 308 198 144 150 152 151 155 161 158 157 149 155 155 157 158 166 173 181 177 164 174 167 156 153 173 178 176 175 193 198 198 195 194 187 178 188 186 191 201 205 213 206 217 218 206 227 244 259 248 236 249 282 292 286 262 212 227 206 177 34 329 306 325 350 73 163 161 175 215 252 80 283 321 286 326 351 55 112 182 191 220
154 151 158 189 177 292 168 157 157 157 160 158 160 156 153 154 160 160 166 174 178 183 166 167 176 178 175 177 178 179 179 211 206 197 188 193 165 171 187 196 189 188 205 204 210 213 210 212 207 219 233 239 246 240 256 250 263 280 210 146 195 159 97 26 313 301 336 348 21 337 282 163 161 111 268 287 352 316 1 347 1 356 354 332 303
154 158 166 165 181 208 272 166 163 161 160 160 159 159 158 158 161 166 169 178 187 178 158 168 172 182 184 176 182 182 184 194 192 192 182 170 161 174 181 200 201 200 203 206 206 206 205 211 212 223 237 251 242 227 234 244 245 264 210 194 153 145 134 206 276 330 80 286 331 25 24 17 57 57 125 153 165 352 314 325 298 343 297 252 258
165 161 170 172 178 198 237 227 167 160 160 164 161 163 163 161 162 166 172 179 188 170 162 171 155 164 175 166 174 185 183 181 176 176 170 170 166 176 183 201 208 217 214 208 206 199 203 210 215 228 229 245 251 256 245 231 222 205 224 157 208 307 203 168 119 281 219 277 340 336 36 51 31 59 68 79 119 131 286 279 296 324 347 312 314
183 170 165 178 174 197 163 336 262 166 166 161 160 160 164 164 165 167 174 178 177 167 158 173 159 138 145 167 162 174 174 163 159 170 172 171 176 186 191 198 208 217 220 213 205 201 197 206 210 221 230 242 257 252 244 226 235 224 206 198 180 256 297 166 214 263 265 272 246 243 11 350 15 4 10 64 50 112 206 267 257 304 325 290 312
192 183 172 178 186 168 142 164 300 291 169 159 158 163 163 164 167 172 176 175 170 165 158 175 174 145 147 169 168 169 170 161 167 166 166 175 184 192 192 205 205 209 210 215 202 203 201 201 204 217 231 243 257 263 256 224 218 213 225 203 172 202 255 253 320 300 295 332 333 5 249 236 218 231 247 234 151 191 5 302 294 232 237 303 288
215 142 158 156 143 138 153 183 184 289 260 157 161 162 163 165 168 170 172 177 170 167 162 176 173 163 151 166 181 177 167 170 178 179 179 182 189 190 201 207 213 214 207 212 210 206 203 211 213 216 229 241 251 246 243 217 233 217 232 213 235 241 241 232 258 305 313 318 309 285 261 217 218 215 239 179 176 205 176 237 255 304 328 243 271
203 173 144 156 151 156 172 173 188 163 267 173 164 162 164 167 169 167 174 176 176 169 169 175 175 177 170 172 191 186 182 171 181 182 177 182 185 188 181 202 212 218 215 206 211 205 201 212 222 225 237 241 246 245 234 213 200 193 203 223 227 227 227 223 243 250 258 272 277 298 303 292 267 250 166 182 190 155 152 212 277 213 233 289 290
190 192 49 92 68 179 186 184 178 173 260 226 163 163 165 169 171 172 174 175 174 173 172 174 182 186 179 177 183 183 192 181 184 178 179 182 178 183 186 193 197 205 208 213 209 204 204 210 212 221 226 235 237 228 231 218 204 196 217 218 218 232 238 236 232 246 253 256 256 293 293 276 269 239 179 164 165 145 190 212 246 326 208 263 287
331 355 20 59 86 60 293 190 176 176 203 229 171 165 166 167 172 174 169 175 174 177 174 177 182 188 185 186 184 180 188 186 192 184 173 172 181 178 188 193 193 201 204 215 218 213 214 216 218 222 223 227 236 236 223 220 221 220 221 222 260 251 241 247 255 247 261 278 292 274 289 296 284 238 168 209 186 197 188 186 157 265 316 336 307
339 4 74 99 109 73 37 192 181 182 193 213 175 168 168 170 172 172 172 175 176 176 179 179 181 186 185 188 194 185 188 183 191 201 189 182 177 180 186 191 198 197 207 207 225 218 217 218 220 223 225 225 229 227 224 218 219 228 268 274 276 262 264 245 247 263 266 271 274 283 283 281 282 289 256 211 208 212 218 162 157 167 197 282 338
164 228 173 150 256 6 339 331 187 186 193 193 175 174 172 164 163 167 167 172 175 178 179 179 177 182 194 188 192 184 185 183 190 199 201 201 189 191 188 200 204 207 210 201 210 217 220 216 219 223 220 221 222 220 215 217 218 224 239 255 262 273 278 270 272 279 275 275 273 271 274 283 295 295 292 231 205 240 221 192 185 193 172 184 260
307 78 114 117 122 72 354 319 315 209 189 176 173 171 163 160 160 167 167 170 179 176 180 179 178 184 193 192 192 188 185 188 185 190 193 195 207 209 205 202 214 219 220 226 211 205 212 218 216 223 222 217 219 213 208 212 209 223 231 237 244 251 264 275 265 260 273 262 253 280 289 298 289 304 286 283 202 196 185 192 205 210 168 204 202
40 27 12 44 3 1 349 341 329 227 168 157 151 146 155 161 162 167 178 175 173 171 167 176 186 188 189 193 190 192 187 183 184 183 184 192 204 207 212 216 214 223 231 232 234 228 205 216 214 218 219 221 218 217 212 215 208 220 228 236 244 239 243 253 262 255 255 251 267 279 287 290 282 271 278 291 296 300 245 182 207 213 209 221 212
20 55 60 64 84 64 3 338 341 342 145 149 143 143 154 158 167 175 154 132 160 167 168 170 177 187 191 192 195 191 191 189 186 186 189 195 201 204 209 213 217 216 221 220 221 228 224 209 214 214 213 216 215 220 218 218 215 217 224 231 237 227 236 244 258 255 254 255 261 266 268 263 275 293 285 270 269 277 267 289 278 204 220 217 189
18 31 61 54 56 84 87 37 7 341 349 19 107 143 149 157 166 168 163 156 169 175 179 186 177 184 186 188 195 194 197 195 197 198 204 209 206 202 204 209 212 218 209 212 214 219 224 218 208 213 214 209 210 219 217 218 215 224 231 229 234 226 231 244 247 263 260 258 253 253 257 263 275 290 278 281 283 277 281 289 267 245 254 190 173
25 18 48 63 47 32 109 111 81 29 1 10 39 87 83 68 47 18 355 271 174 175 186 183 198 192 189 189 190 191 194 197 201 205 208 212 225 223 214 221 217 220 214 209 206 210 214 217 214 212 210 208 210 213 215 208 212 221 230 228 233 233 235 244 243 251 256 251 248 249 261 262 256 253 263 260 248 272 292 297 286 210 226 228 212
1 8 90 142 129 116 71 90 106 104 63 14 1 58 122 130 132 149 151 259 331 323 221 185 192 205 197 190 192 190 193 194 191 178 178 174 176 170 161 164 180 172 136 258 251 237 222 207 210 214 208 208 206 212 213 207 212 215 222 225 226 225 227 233 234 238 240 239 240 246 257 266 271 269 264 260 271 272 267 226 239 260 230 251 212
6 4 60 207 166 96 68 75 86 85 52 12 2 7 13 51 144 152 157 157 134 266 291 240 207 212 205 195 190 191 191 189 185 183 183 184 182 191 179 186 192 191 203 195 172 152 183 237 233 211 207 214 214 209 208 212 216 217 219 221 223 225 226 227 230 235 235 228 230 237 260 288 297 282 272 274 271 246 201 191 199 235 221 250 251
23 20 50 87 66 63 70 65 54 76 82 61 35 22 15 7 17 97 163 171 155 150 188 299 256 211 207 191 182 177 184 186 189 185 174 172 181 184 181 179 180 202 212 201 204 203 181 144 190 250 271 251 230 218 212 215 222 225 224 222 223 225 228 228 230 232 230 216 165 207 223 232 240 260 264 249 226 208 212 201 212 235 225 238 256
15 21 35 77 81 91 95 89 75 58 85 126 144 176 166 125 130 85 351 76 145 149 149 190 285 260 202 191 184 184 186 186 185 184 183 178 178 183 193 192 178 191 198 202 199 201 193 196 179 185 171 162 139 345 319 294 268 248 231 228 227 225 225 225 228 225 187 166 204 225 231 266 285 276 266 257 235 215 193 202 213 227 234 227 229
23 25 24 23 48 57 90 131 120 129 164 203 172 153 137 110 44 46 80 253 225 183 160 154 200 263 238 184 177 191 192 186 182 188 189 187 191 189 191 202 192 185 192 196 208 200 193 195 224 205 193 191 184 190 188 163 21 304 284 260 234 224 224 225 229 192 189 203 211 220 214 207 224 238 254 251 233 199 200 210 213 217 226 201 206
45 43 37 29 24 23 28 57 143 188 209 219 178 121 143 120 103 323 240 215 205 199 171 159 157 248 251 182 186 160 139 150 161 166 180 195 203 204 205 217 222 226 227 218 206 204 193 186 200 212 218 190 183 176 176 196 212 202 227 277 275 236 221 224 197 192 202 207 210 214 219 227 231 243 326 334 326 252 235 225 224 214 215 208 225
46 46 47 44 32 19 22 14 5 43 249 280 286 115 211 203 177 220 229 353 288 169 133 108 120 192 315 3 36 30 69 116 137 166 177 178 183 201 217 222 210 228 246 273 314 286 188 198 203 198 189 190 197 203 204 204 228 226 153 116 281 283 243 196 195 198 204 215 222 222 223 220 221 204 179 203 204 219 219 218 231 205 205 205 220
22 15 14 24 37 30 18 22 15 5 1 21 33 134 206 284 280 260 262 168 160 355 80 88 113 125 119 3 26 55 74 78 86 113 137 107 110 198 271 246 243 244 246 227 258 328 242 205 204 215 205 202 205 210 220 207 206 213 205 186 208 226 214 207 194 195 206 209 216 223 228 228 206 187 192 205 229 236 220 204 203 192 198 197 210
15 8 1 351 19 38 26 17 13 15 26 40 67 62 40 41 14 349 19 333 97 124 93 118 71 48 20 130 189 151 85 71 59 51 55 59 59 58 196 215 202 212 226 238 205 215 208 206 232 220 210 221 228 230 233 221 224 225 212 209 226 239 230 199 201 199 204 207 213 219 214 207 191 200 201 213 238 258 235 215 205 201 198 196 208
8 341 344 351 12 30 24 12 0 17 42 56 61 78 86 69 44 52 37 38 52 71 87 86 89 100 105 296 335 112 116 108 93 78 52 43 55 64 55 71 157 261 334 267 263 261 269 213 203 207 219 219 226 351 299 247 239 236 223 210 214 217 215 213 204 205 208 205 208 204 199 193 203 218 219 235 251 271 259 243 239 234 234 229 217
348 354 16 16 12 20 16 20 32 36 53 57 64 67 63 58 59 44 51 52 52 56 69 64 68 111 36 338 351 52 102 109 109 106 100 73 25 55 69 69 70 62 85 7 292 1 7 321 350 256 350 39 66 20 13 0 340 307 276 253 229 223 213 209 205 206 203 204 190 187 232 228 231 221 223 226 254 286 286 274 262 262 263 265 264
356 7 18 15 23 25 16 26 40 49 65 65 61 69 67 64 63 56 54 51 56 57 62 69 83 101 143 188 187 109 83 65 56 59 55 37 18 22 36 57 62 89 102 59 33 29 333 315 276 105 74 64 45 21 17 5 351 335 322 306 251 239 224 214 212 205 203 203 191 170 190 195 206 231 125 119 341 287 294 292 292 289 274 280 279
11 16 8 0 25 35 27 33 28 41 52 64 64 64 71 68 63 64 63 67 63 66 53 62 68 61 77 102 107 95 93 77 83 87 74 61 41 30 21 14 31 52 62 68 32 23 305 311 301 66 88 68 38 20 20 7 349 342 332 320 288 279 252 235 230 218 208 201 198 192 179 171 139 106 72 67 55 15 4 333 312 291 292 280 282
341 37 21 8 13 48 42 31 36 47 61 68 72 74 74 72 71 67 61 59 58 52 47 43 54 55 58 61 76 81 77 53 53 78 77 71 66 45 31 34 50 41 35 34 34 28 19 356 330 65 84 57 26 11 5 5 357 347 340 307 298 285 273 260 243 247 39 42 49 68 83 79 27 61 43 39 27 57 57 19 348 334 327 318 299
37 48 26 9 355 65 70 62 47 60 65 69 70 67 68 67 63 56 60 62 58 52 37 37 36 35 46 66 79 81 75 59 48 68 74 75 77 65 54 49 64 55 52 50 50 35 18 39 55 62 68 61 32 10 4 12 13 5 354 323 299 279 264 280 13 18 18 354 58 84 73 100 96 67 46 28 6 24 59 37 355 327 308 306 300
59 38 38 24 25 48 57 76 72 58 44 50 64 64 62 62 59 55 64 61 58 51 34 28 27 26 37 47 59 68 69 59 54 63 74 82 78 72 65 54 63 63 60 54 50 51 42 42 55 55 53 54 41 17 4 1 8 15 16 348 325 303 260 92 131 74 77 337 57 112 94 86 79 64 37 43 12 24 49 29 359 338 326 320 325
67 67 54 54 46 36 30 46 53 54 32 52 62 74 81 79 69 69 73 78 75 73 56 43 33 29 31 48 57 67 72 68 59 54 69 87 82 80 77 65 65 66 66 59 60 64 60 51 49 56 56 55 34 18 13 7 7 3 19 40 6 14 12 343 236 133 116 74 59 61 72 71 77 69 65 59 41 54 72 39 22 353 330 317 341
86 355 36 43 33 30 33 63 58 26 359 22 26 53 79 85 72 79 81 82 89 95 94 71 53 50 44 47 63 75 75 77 74 69 75 81 89 81 68 70 67 71 76 67 66 65 68 57 46 49 53 55 45 28 22 12 12 16 8 30 36 48 20 3 333 149 108 101 66 62 51 55 50 34 19 25 41 40 69 58 42 39 344 303 321
157 85 96 79 54 57 65 69 81 63 38 29 27 23 61 76 80 71 77 81 83 75 70 71 65 60 56 52 48 59 66 62 65 71 70 66 60 69 69 67 71 71 71 64 61 62 64 58 48 42 40 32 45 38 29 17 7 11 12 15 41 35 19 15 22 339 115 95 75 64 47 25 31 53 43 1 22 27 39 66 43 7 322 305 311
140 110 94 83 81 83 76 73 77 77 38 8 24 49 74 96 96 90 106 98 80 74 75 74 76 71 60 54 54 54 56 59 56 62 70 68 60 67 72 76 80 76 76 73 68 60 59 54 41 37 40 23 27 37 22 33 10 5 9 14 23 25 33 20 30 339 336 69 68 50 57 22 9 23 31 32 48 52 10 30 5 312 298 304 303
124 105 107 114 103 102 114 122 118 120 117 67 334 3 65 75 81 96 113 104 96 90 81 83 91 89 83 77 66 59 57 56 59 61 73 72 60 70 76 76 76 74 71 71 63 57 58 52 45 35 31 31 20 17 20 16 17 15 15 15 22 26 5 34 42 7 28 54 69 79 76 38 33 43 38 47 57 42 49 25 4 3 355 343 336
130 133 132 127 128 134 121 112 117 129 121 152 219 191 80 76 74 91 94 96 97 96 94 80 59 58 66 62 61 59 60 56 60 67 70 77 70 71 73 71 70 68 66 63 46 43 46 49 47 36 32 26 15 11 11 13 12 15 13 10 11 9 17 9 33 33 21 15 30 20 10 14 54 50 54 74 62 48 40 29 22 12 18 14 357
145 149 140 132 136 126 107 78 67 105 119 136 250 214 87 66 33 64 82 97 96 95 98 102 100 84 68 65 60 58 57 56 50 54 63 65 67 67 69 45 67 64 66 67 50 45 42 32 32 28 19 20 16 11 5 2 7 10 7 4 3 2 16 5 33 11 28 2 352 332 9 37 49 56 61 59 47 38 32 28 25 18 27 25 23
128 125 126 129 116 106 113 111 76 68 69 89 87 73 69 35 33 51 66 87 89 88 85 84 84 81 80 75 66 56 52 48 50 50 59 50 62 64 72 58 61 69 70 72 68 62 55 52 43 23 22 16 16 9 3 356 3 359 2 358 0 11 11 10 19 26 10 13 30 55 67 74 70 63 57 52 48 39 35 32 29 29 23 30 31
128 138 125 115 112 102 101 97 83 42 61 68 81 79 92 68 52 51 70 84 88 86 83 78 80 80 76 75 76 66 50 41 39 45 46 48 49 55 64 60 58 66 70 75 75 77 72 64 53 31 18 26 24 13 3 355 357 357 358 355 6 13 11 18 30 16 19 27 64 74 89 90 85 71 66 58 55 46 39 34 29 26 27 29 36
126 123 115 113 113 121 117 107 103 105 98 87 74 77 73 64 59 62 75 80 81 88 94 97 95 94 91 94 91 90 84 63 44 40 39 39 37 45 62 54 52 37 56 59 65 67 70 73 64 41 42 39 25 18 16 360 349 354 350 358 11 24 20 22 21 16 13 48 61 60 62 57 55 51 50 47 46 44 41 34 35 31 31 35 40
125 126 121 124 124 113 115 111 120 126 111 98 83 68 59 59 61 73 84 82 79 82 86 85 92 95 93 87 91 99 100 98 85 59 52 44 23 4 39 72 59 63 12 43 61 59 63 46 64 40 49 54 35 32 6 332 323 323 325 345 15 12 6 22 16 343 31 48 48 51 46 45 37 36 36 37 34 40 40 35 35 34 33 31 33
132 125 122 120 122 127 123 120 127 122 116 109 92 74 64 62 68 73 83 87 85 76 73 76 83 88 98 103 92 88 99 108 110 115 103 59 34 28 338 36 69 49 62 58 43 63 350 331 7 4 89 109 92 342 347 5 316 313 323 323 328 339 337 6 5 45 59 59 51 55 47 45 42 35 38 33 24 32 36 35 31 31 33 33 33
136 124 126 129 139 131 127 130 143 124 103 97 92 82 74 68 76 83 89 92 88 84 77 71 73 81 92 95 106 119 116 104 113 128 131 128 150 229 33 54 58 23 352 352 49 78 32 28 22 347 318 242 259 314 343 338 9 23 56 62 62 62 55 46 33 57 51 53 47 54 45 42 43 40 35 31 30 31 29 33 35 32 34 30 29